Afton Municipal Airport, WY

10:23 PM MST on December 15, 2019 (GMT -0700)
Afton Municipal

Weather History for KAFO - October, 2019

Change the Weather History Date:

Wednesday, October 2, 2019

  Actual Average Record
Temperature  
Mean Temperature 35 °F -  
Max Temperature 44 °F 67 °F 71 °F (2018)
Min Temperature 26 °F 30 °F 26 °F (2014)
Degree Days  
Heating Degree Days 30    
Moisture  
Dew Point 27 °F    
Average Humidity 76    
Maximum Humidity 100    
Minimum Humidity 39    
Precipitation  
Precipitation 0.00 in - - ()
Sea Level Pressure  
Sea Level Pressure 30.15 in    
Wind  
Wind Speed 3 mph ()    
Max Wind Speed 14 mph    
Max Gust Speed 22 mph    
Visibility 9.6 miles    
Events Snow    
Averages and records for this station are not official NWS values.
T = Trace of Precipitation, MM = Missing Value Source: Averaged Metar Reports

Daily Weather History Graph

Daily Weather History Graph

Search for Another Location

Airport or City:

Astronomy

Oct. 02, 2019 Rise Set
Actual Time 7:21 AM MDT 7:03 PM MDT
Civil Twilight 6:53 AM MDT 7:31 PM MDT
Nautical Twilight 6:20 AM MDT 8:04 PM MDT
Astronomical Twilight 5:47 AM MDT 8:37 PM MDT
Moon 11:57 AM MDT (10/2) 9:54 PM MDT (10/2)
Length of Visible Light 12h 37m
Length of Day
11h 41m
Waxing Crescent, 21% of the Moon is Illuminated
Oct 2
Waxing Crescent
Oct 5
First Quarter
Oct 13
Full
Oct 21
Last Quarter
Oct 27
New

Hourly Weather History & Observations

Time (MDT) Temp. Windchill Dew Point Humidity Pressure Visibility Wind Dir Wind Speed Gust Speed Precip Events Conditions
12:15 AM 32.0 °F - 28.4 °F 87% 30.03 in 10.0 mi Calm Calm - N/A   Mostly Cloudy
12:35 AM 33.8 °F 29.6 °F 30.2 °F 87% 30.02 in 10.0 mi North 4.6 mph - N/A   Overcast
12:55 AM 32.0 °F - 28.4 °F 87% 30.02 in 10.0 mi Calm Calm - N/A   Overcast
1:15 AM 30.2 °F - 28.4 °F 93% 30.02 in 10.0 mi Calm Calm - N/A   Scattered Clouds
1:35 AM 32.0 °F - 28.4 °F 87% 30.03 in 10.0 mi Calm Calm - N/A   Scattered Clouds
1:55 AM 32.0 °F 27.5 °F 30.2 °F 93% 30.03 in 10.0 mi NNE 4.6 mph - N/A   Mostly Cloudy
2:15 AM 32.0 °F - 30.2 °F 93% 30.04 in 10.0 mi Calm Calm - N/A   Mostly Cloudy
2:35 AM 32.0 °F - 30.2 °F 93% 30.04 in 10.0 mi Calm Calm - N/A   Overcast
2:55 AM 30.2 °F 26.7 °F 30.2 °F 100% 30.04 in 10.0 mi SSE 3.5 mph - N/A   Overcast
3:15 AM 30.2 °F 26.7 °F 30.2 °F 100% 30.05 in 10.0 mi SSW 3.5 mph - N/A   Overcast
3:35 AM 32.0 °F 27.5 °F 30.2 °F 93% 30.04 in 10.0 mi SE 4.6 mph - N/A   Overcast
3:55 AM 32.0 °F 28.7 °F 30.2 °F 93% 30.04 in 10.0 mi SSE 3.5 mph - N/A   Overcast
4:15 AM 32.0 °F 28.7 °F 30.2 °F 93% 30.03 in 10.0 mi SSW 3.5 mph - N/A   Overcast
4:35 AM 32.0 °F 28.7 °F 32.0 °F 100% 30.04 in 10.0 mi SSE 3.5 mph - N/A   Overcast
4:55 AM 32.0 °F 28.7 °F 32.0 °F 100% 30.04 in 10.0 mi SE 3.5 mph - N/A   Overcast
5:15 AM 32.0 °F - 30.2 °F 93% 30.04 in 10.0 mi Calm Calm - N/A   Overcast
5:35 AM 30.2 °F - 28.4 °F 93% 30.05 in 10.0 mi Calm Calm - N/A   Mostly Cloudy
5:55 AM 30.2 °F - 30.2 °F 100% 30.05 in 10.0 mi Calm Calm - N/A   Overcast
6:15 AM 32.0 °F - 30.2 °F 93% 30.05 in 10.0 mi Calm Calm - N/A   Overcast
6:35 AM 32.0 °F 28.7 °F 30.2 °F 93% 30.07 in 10.0 mi South 3.5 mph - N/A Snow Light Snow
6:55 AM 32.0 °F - 30.2 °F 93% 30.07 in 10.0 mi Calm Calm - N/A Snow Light Snow
7:15 AM 32.0 °F 28.7 °F 30.2 °F 93% 30.08 in 7.0 mi SSW 3.5 mph - N/A Snow Light Snow
7:35 AM 32.0 °F - 30.2 °F 93% 30.09 in 10.0 mi Calm Calm - N/A   Overcast
7:55 AM 32.0 °F 28.7 °F 30.2 °F 93% 30.09 in 2.5 mi ESE 3.5 mph - N/A Snow Light Snow
8:10 AM 32.0 °F - 30.2 °F 93% 30.10 in 10.0 mi Calm Calm - N/A   Overcast
8:35 AM 32.0 °F - 32.0 °F 100% 30.10 in 10.0 mi Calm Calm - N/A   Overcast
8:55 AM 32.0 °F - 32.0 °F 100% 30.11 in 10.0 mi Calm Calm - N/A   Overcast
9:15 AM 32.0 °F 28.7 °F 32.0 °F 100% 30.11 in 10.0 mi West 3.5 mph - N/A   Overcast
9:35 AM 32.0 °F 28.7 °F 32.0 °F 100% 30.12 in 10.0 mi North 3.5 mph - N/A   Mostly Cloudy
9:55 AM 33.8 °F - 32.0 °F 93% 30.13 in 10.0 mi Calm Calm - N/A   Overcast
10:15 AM 32.0 °F 24.2 °F 30.2 °F 93% 30.14 in 2.0 mi North 9.2 mph - N/A Snow Light Snow
10:35 AM 32.0 °F 24.8 °F 30.2 °F 93% 30.16 in 10.0 mi NE 8.1 mph - N/A   Mostly Cloudy
10:55 AM 33.8 °F 28.6 °F 26.6 °F 75% 30.16 in 10.0 mi NNE 5.8 mph - N/A   Mostly Cloudy
11:15 AM 33.8 °F 28.6 °F 28.4 °F 81% 30.16 in 10.0 mi North 5.8 mph - N/A   Overcast
11:35 AM 32.0 °F 23.6 °F 30.2 °F 93% 30.19 in 4.0 mi NW 10.4 mph 20.7 mph N/A Snow Light Snow
11:55 AM 33.8 °F 30.8 °F 32.0 °F 93% 30.19 in 4.0 mi NE 3.5 mph - N/A   Mostly Cloudy
12:15 PM 35.6 °F 26.6 °F 28.4 °F 75% 30.19 in 10.0 mi West 13.8 mph 21.9 mph N/A   Scattered Clouds
12:35 PM 35.6 °F 28.6 °F 28.4 °F 75% 30.19 in 10.0 mi North 9.2 mph - N/A   Overcast
12:55 PM 35.6 °F 28.0 °F 26.6 °F 70% 30.20 in 10.0 mi WNW 10.4 mph - N/A   Overcast
1:15 PM 37.4 °F 30.8 °F 24.8 °F 60% 30.20 in 10.0 mi NNW 9.2 mph - N/A   Overcast
1:35 PM 37.4 °F 30.3 °F 23.0 °F 56% 30.20 in 10.0 mi WNW 10.4 mph - N/A   Overcast
1:55 PM 41.0 °F 38.0 °F 26.6 °F 57% 30.20 in 10.0 mi West 4.6 mph - N/A   Overcast
2:15 PM 41.0 °F 35.2 °F 21.2 °F 45% 30.20 in 10.0 mi NNW 9.2 mph - N/A   Overcast
2:35 PM 39.2 °F 34.2 °F 21.2 °F 49% 30.20 in 10.0 mi WSW 6.9 mph - N/A   Mostly Cloudy
2:55 PM 41.0 °F - 21.2 °F 45% 30.20 in 10.0 mi Calm Calm - N/A   Mostly Cloudy
3:15 PM 44.6 °F 38.4 °F 23.0 °F 43% 30.20 in 10.0 mi SW 12.7 mph - N/A   Mostly Cloudy
3:35 PM 44.6 °F 39.7 °F 23.0 °F 43% 30.20 in 10.0 mi WNW 9.2 mph - N/A   Mostly Cloudy
3:55 PM 44.6 °F 40.2 °F 21.2 °F 39% 30.21 in 10.0 mi WSW 8.1 mph - N/A   Mostly Cloudy
4:15 PM 44.6 °F 40.7 °F 21.2 °F 39% 30.21 in 10.0 mi WSW 6.9 mph - N/A   Mostly Cloudy
4:35 PM 44.6 °F 40.7 °F 21.2 °F 39% 30.21 in 10.0 mi West 6.9 mph - N/A   Scattered Clouds
4:55 PM 44.6 °F 40.7 °F 21.2 °F 39% 30.21 in 10.0 mi West 6.9 mph - N/A   Scattered Clouds
5:15 PM 44.6 °F 41.4 °F 21.2 °F 39% 30.21 in 10.0 mi NW 5.8 mph - N/A   Clear
5:35 PM 44.6 °F 43.1 °F 21.2 °F 39% 30.21 in 10.0 mi NNW 3.5 mph - N/A   Clear
5:55 PM 42.8 °F 41.1 °F 21.2 °F 42% 30.22 in 10.0 mi North 3.5 mph - N/A   Clear
6:15 PM 42.8 °F - 19.4 °F 39% 30.21 in 10.0 mi Calm Calm - N/A   Clear
6:35 PM 41.0 °F - 23.0 °F 49% 30.21 in 10.0 mi Calm Calm - N/A   Clear
6:55 PM 39.2 °F 37.0 °F 23.0 °F 52% 30.21 in 10.0 mi NNE 3.5 mph - N/A   Clear
7:15 PM 35.6 °F 31.7 °F 23.0 °F 60% 30.21 in 10.0 mi ENE 4.6 mph - N/A   Clear
7:35 PM 35.6 °F 31.7 °F 23.0 °F 60% 30.22 in 10.0 mi ENE 4.6 mph - N/A   Clear
7:55 PM 33.8 °F 30.8 °F 23.0 °F 65% 30.22 in 10.0 mi SW 3.5 mph - N/A   Clear
8:15 PM 32.0 °F - 24.8 °F 75% 30.23 in 10.0 mi Calm Calm - N/A   Clear
8:35 PM 30.2 °F 25.4 °F 23.0 °F 75% 30.23 in 10.0 mi South 4.6 mph - N/A   Clear
8:55 PM 30.2 °F 26.7 °F 24.8 °F 80% 30.24 in 10.0 mi SW 3.5 mph - N/A   Clear
9:15 PM 30.2 °F 24.3 °F 23.0 °F 75% 30.25 in 10.0 mi South 5.8 mph - N/A   Clear
9:35 PM 28.4 °F - 23.0 °F 80% 30.25 in 10.0 mi Calm Calm - N/A   Clear
9:55 PM 28.4 °F - 23.0 °F 80% 30.24 in 10.0 mi Calm Calm - N/A   Clear
10:15 PM 28.4 °F - 23.0 °F 80% 30.24 in 10.0 mi Calm Calm - N/A   Clear
10:35 PM 30.2 °F 26.7 °F 23.0 °F 75% 30.24 in 10.0 mi West 3.5 mph - N/A   Clear
10:55 PM 30.2 °F - 21.2 °F 69% 30.24 in 10.0 mi Calm Calm - N/A   Clear
11:15 PM 26.6 °F 22.6 °F 21.2 °F 80% 30.24 in 10.0 mi SW 3.5 mph - N/A   Clear
11:35 PM 26.6 °F - 21.2 °F 80% 30.24 in 10.0 mi Calm Calm - N/A   Clear
11:55 PM 28.4 °F - 21.2 °F 74% 30.23 in 10.0 mi Calm Calm - N/A   Clear